TimeCDT,TemperatureF,Dew PointF,Humidity,Sea Level PressureIn,VisibilityMPH,Wind Direction,Wind SpeedMPH,Gust SpeedMPH,PrecipitationIn,Events,Conditions,WindDirDegrees,DateUTC
12:13 AM,33.8,23.0,65,30.19,10.0,ENE,5.8,-,N/A,,Overcast,70,2012-11-03 05:13:00
12:32 AM,33.8,23.0,65,30.19,10.0,East,3.5,-,N/A,,Overcast,90,2012-11-03 05:32:00
12:53 AM,33.8,23.0,65,30.19,10.0,Calm,Calm,-,N/A,,Overcast,0,2012-11-03 05:53:00
1:13 AM,33.8,23.0,65,30.20,10.0,Calm,Calm,-,N/A,,Overcast,0,2012-11-03 06:13:00
1:33 AM,33.8,24.8,70,30.20,10.0,Calm,Calm,-,N/A,,Mostly Cloudy,0,2012-11-03 06:33:00
1:53 AM,33.8,24.8,70,30.20,10.0,East,4.6,-,N/A,,Mostly Cloudy,80,2012-11-03 06:53:00
2:13 AM,33.8,23.0,65,30.20,10.0,ENE,3.5,-,N/A,,Overcast,60,2012-11-03 07:13:00
2:33 AM,33.8,23.0,65,30.20,10.0,ENE,3.5,-,N/A,,Overcast,60,2012-11-03 07:33:00
2:53 AM,32.0,23.0,69,30.20,10.0,ENE,4.6,-,N/A,,Overcast,70,2012-11-03 07:53:00
3:12 AM,32.0,23.0,69,30.20,10.0,East,4.6,-,N/A,,Overcast,90,2012-11-03 08:12:00
3:33 AM,32.0,23.0,69,30.20,10.0,East,4.6,-,N/A,,Overcast,90,2012-11-03 08:33:00
3:53 AM,30.2,24.8,80,30.19,10.0,East,4.6,-,N/A,,Overcast,90,2012-11-03 08:53:00
4:13 AM,30.2,23.0,75,30.19,10.0,East,4.6,-,N/A,,Mostly Cloudy,90,2012-11-03 09:13:00
4:52 AM,30.2,24.8,80,30.19,10.0,Calm,Calm,-,N/A,,Overcast,0,2012-11-03 09:52:00
5:13 AM,32.0,24.8,75,30.20,10.0,SE,3.5,-,N/A,,Overcast,130,2012-11-03 10:13:00
5:31 AM,32.0,24.8,75,30.20,10.0,ESE,3.5,-,N/A,,Overcast,120,2012-11-03 10:31:00
5:52 AM,32.0,24.8,75,30.21,10.0,ESE,3.5,-,N/A,,Overcast,120,2012-11-03 10:52:00
6:13 AM,32.0,24.8,75,30.21,10.0,ESE,5.8,-,N/A,,Overcast,110,2012-11-03 11:13:00
6:32 AM,32.0,24.8,75,30.21,10.0,ESE,4.6,-,N/A,,Overcast,120,2012-11-03 11:32:00
6:52 AM,30.2,24.8,80,30.20,10.0,ESE,4.6,-,N/A,,Mostly Cloudy,120,2012-11-03 11:52:00
7:12 AM,30.2,24.8,80,30.20,10.0,SE,3.5,-,N/A,,Mostly Cloudy,130,2012-11-03 12:12:00
7:33 AM,30.2,24.8,80,30.20,10.0,SE,3.5,-,N/A,,Overcast,140,2012-11-03 12:33:00
7:53 AM,30.2,24.8,80,30.21,10.0,ESE,3.5,-,N/A,,Overcast,120,2012-11-03 12:53:00
8:13 AM,30.2,24.8,80,30.21,10.0,Calm,Calm,-,N/A,,Overcast,0,2012-11-03 13:13:00
8:33 AM,30.2,26.6,86,30.21,10.0,Calm,Calm,-,N/A,,Overcast,0,2012-11-03 13:33:00
8:53 AM,30.2,26.6,86,30.22,10.0,Calm,Calm,-,N/A,,Overcast,0,2012-11-03 13:53:00
9:13 AM,32.0,26.6,80,30.22,10.0,East,5.8,-,N/A,,Overcast,80,2012-11-03 14:13:00
9:33 AM,32.0,26.6,80,30.23,10.0,East,5.8,-,N/A,,Mostly Cloudy,100,2012-11-03 14:33:00
9:53 AM,33.8,26.6,75,30.23,10.0,East,6.9,-,N/A,,Mostly Cloudy,100,2012-11-03 14:53:00
10:13 AM,32.0,24.8,75,30.23,10.0,ESE,9.2,-,N/A,,Overcast,110,2012-11-03 15:13:00
10:33 AM,32.0,24.8,75,30.23,10.0,SE,8.1,-,N/A,,Overcast,130,2012-11-03 15:33:00
10:52 AM,33.8,24.8,70,30.23,10.0,ESE,5.8,-,N/A,,Overcast,120,2012-11-03 15:52:00
11:13 AM,33.8,24.8,70,30.23,10.0,ESE,5.8,-,N/A,,Overcast,110,2012-11-03 16:13:00
11:33 AM,33.8,26.6,75,30.23,10.0,SE,5.8,-,N/A,,Overcast,130,2012-11-03 16:33:00
11:53 AM,33.8,26.6,75,30.24,10.0,SE,5.8,-,N/A,,Overcast,130,2012-11-03 16:53:00
12:13 PM,33.8,26.6,75,30.23,10.0,SE,5.8,-,N/A,,Overcast,140,2012-11-03 17:13:00
12:32 PM,33.8,26.6,75,30.23,10.0,East,5.8,-,N/A,,Overcast,100,2012-11-03 17:32:00
12:52 PM,33.8,26.6,75,30.23,10.0,SE,4.6,-,N/A,,Overcast,130,2012-11-03 17:52:00
1:13 PM,35.6,26.6,70,30.23,10.0,SSE,6.9,-,N/A,,Overcast,150,2012-11-03 18:13:00
1:33 PM,35.6,24.8,65,30.23,10.0,SSE,4.6,-,N/A,,Overcast,150,2012-11-03 18:33:00
1:53 PM,35.6,26.6,70,30.23,10.0,SE,4.6,-,N/A,,Overcast,140,2012-11-03 18:53:00
2:13 PM,35.6,26.6,70,30.22,10.0,SE,4.6,-,N/A,,Overcast,130,2012-11-03 19:13:00
2:33 PM,35.6,24.8,65,30.22,10.0,ESE,6.9,-,N/A,,Overcast,120,2012-11-03 19:33:00
2:52 PM,37.4,24.8,60,30.22,10.0,ESE,5.8,-,N/A,,Overcast,120,2012-11-03 19:52:00
3:12 PM,37.4,26.6,65,30.22,10.0,SSE,4.6,-,N/A,,Overcast,150,2012-11-03 20:12:00
3:33 PM,37.4,26.6,65,30.21,10.0,SSE,3.5,-,N/A,,Overcast,150,2012-11-03 20:33:00
3:53 PM,37.4,24.8,60,30.22,10.0,SSE,3.5,-,N/A,,Overcast,160,2012-11-03 20:53:00
4:13 PM,37.4,24.8,60,30.21,10.0,SE,3.5,-,N/A,,Overcast,130,2012-11-03 21:13:00
4:32 PM,37.4,26.6,65,30.21,10.0,Calm,Calm,-,N/A,,Overcast,0,2012-11-03 21:32:00
4:53 PM,37.4,26.6,65,30.21,10.0,Calm,Calm,-,N/A,,Overcast,0,2012-11-03 21:53:00
5:13 PM,37.4,24.8,60,30.21,10.0,Calm,Calm,-,N/A,,Overcast,0,2012-11-03 22:13:00
5:31 PM,37.4,24.8,60,30.21,10.0,Calm,Calm,-,N/A,,Overcast,0,2012-11-03 22:31:00
5:53 PM,37.4,26.6,65,30.22,10.0,Calm,Calm,-,N/A,,Overcast,0,2012-11-03 22:53:00
6:13 PM,37.4,26.6,65,30.21,10.0,Calm,Calm,-,N/A,,Overcast,0,2012-11-03 23:13:00
6:33 PM,35.6,26.6,70,30.21,10.0,Calm,Calm,-,N/A,,Overcast,0,2012-11-03 23:33:00
6:53 PM,35.6,26.6,70,30.22,10.0,Calm,Calm,-,N/A,,Overcast,0,2012-11-03 23:53:00
7:13 PM,35.6,26.6,70,30.22,10.0,Calm,Calm,-,N/A,,Overcast,0,2012-11-04 00:13:00
7:32 PM,35.6,26.6,70,30.23,10.0,Calm,Calm,-,N/A,,Overcast,0,2012-11-04 00:32:00
7:52 PM,33.8,26.6,75,30.23,10.0,Calm,Calm,-,N/A,,Overcast,0,2012-11-04 00:52:00
8:13 PM,33.8,26.6,75,30.24,10.0,Calm,Calm,-,N/A,,Overcast,0,2012-11-04 01:13:00
8:33 PM,33.8,26.6,75,30.24,7.0,Calm,Calm,-,N/A,,Overcast,0,2012-11-04 01:33:00
8:53 PM,33.8,26.6,75,30.24,10.0,Calm,Calm,-,N/A,,Overcast,0,2012-11-04 01:53:00
9:13 PM,33.8,26.6,75,30.24,10.0,Calm,Calm,-,N/A,,Overcast,0,2012-11-04 02:13:00
9:33 PM,33.8,26.6,75,30.24,10.0,Calm,Calm,-,N/A,,Overcast,0,2012-11-04 02:33:00
9:52 PM,32.0,28.4,87,30.24,10.0,Calm,Calm,-,N/A,,Overcast,0,2012-11-04 02:52:00
10:12 PM,32.0,26.6,80,30.24,10.0,Calm,Calm,-,N/A,,Overcast,0,2012-11-04 03:12:00
10:32 PM,33.8,28.4,81,30.24,10.0,Calm,Calm,-,N/A,,Overcast,0,2012-11-04 03:32:00
10:52 PM,32.0,26.6,80,30.24,10.0,Calm,Calm,-,N/A,,Overcast,0,2012-11-04 03:52:00
11:13 PM,33.8,26.6,75,30.24,10.0,Calm,Calm,-,N/A,,Overcast,0,2012-11-04 04:13:00
11:33 PM,33.8,26.6,75,30.25,10.0,Calm,Calm,-,N/A,,Overcast,0,2012-11-04 04:33:00